Tracking 35331 objects as of 15-Sep-2026
HD Live streaming from Space Station
objects crossing your sky now

COSMOS 58


COSMOS 58 is no longer on orbit


NORAD ID: 1097
Int'l Code: 1965-014A
Launch date: February 26, 1965
Source: Commonwealth of Independent States (former USSR) (CIS)
Launch site: TYURATAM MISSILE AND SPACE COMPLEX (TTMTR)
Decay date: 1990-02-25
Your satellite tracking list
Your tracking list is empty




NASA's NSSDC Master Catalog

Two Line Element Set (TLE):
1 01097U 65014  A 90056.68348170  .20179781 +34100-4 +31171-3 0  9993
2 01097 064.9616 015.9124 0002268 211.1486 149.3621 16.48528665373194
Source of the keplerian elements: AFSPC